{"data":{"norad_id":63997,"intl_designator":"2025-101D","name":"STARLINK-34165","alt_names":[],"object_type":"PAYLOAD","status":"ACTIVE","operator":null,"country":"US","launch_date":"2025-05-14","launch_site_code":"AFETR","launch_vehicle":null,"mission":null,"orbit_class":"UNKNOWN","rcs_meters":null,"size_class":null,"mass_kg":null,"dimensions":null,"purposes":["comms"],"wikipedia_slug":null,"has_3d_model":false,"image_url":null,"decayed_at":null,"tle_current":{"epoch":"2026-05-25T02:13:27.876000Z","epoch_age_seconds":60205,"freshness":"FRESH","line1":"1 63997U 25101D   26145.09268375  .00014513  00000+0  53556-3 0  9991","line2":"2 63997  42.9955 286.1734 0000792 303.1001  56.9775 15.27599516 58740","mean_motion":15.27599516,"eccentricity":7.92e-5,"inclination_deg":42.9955,"raan_deg":286.1734,"arg_perigee_deg":303.1001,"mean_anomaly_deg":56.9775,"bstar":0.00053556,"rev_number":5874,"period_min":94.2655443994,"perigee_km":482.44725742639,"apogee_km":483.53406004753,"semimajor_km":6861.127658737,"source":"CELESTRAK","updated_at":"2026-05-25T13:38:20.217738Z"}}}